Meteo pe oră la Ali Sabieh

Astăzi, 20 Ianuarie, Miercuri

Timp Temperatura Precipitaţii Vânt Presiune Umiditate
00:00 +20°C° 0 mm 4 m/s 698 mmHg 78%
01:00 +20°C° 0 mm 3 m/s 698 mmHg 79%
02:00 +19°C° 0 mm 3 m/s 698 mmHg 80%
03:00 +19°C° 0 mm 3 m/s 698 mmHg 81%
04:00 +19°C° 0 mm 3 m/s 698 mmHg 84%
05:00 +18°C° 0 mm 3 m/s 698 mmHg 86%
06:00 +18°C° 0 mm 3 m/s 699 mmHg 89%
07:00 +19°C° 0 mm 4 m/s 699 mmHg 76%
08:00 +21°C° 0 mm 4 m/s 700 mmHg 63%
09:00 +22°C° 0 mm 5 m/s 700 mmHg 50%
10:00 +25°C° 0 mm 5 m/s 701 mmHg 42%
11:00 +26°C° 0 mm 6 m/s 701 mmHg 34%
12:00 +28°C° 0 mm 7 m/s 701 mmHg 26%
13:00 +28°C° 0 mm 7 m/s 700 mmHg 24%
14:00 +29°C° 0 mm 8 m/s 700 mmHg 22%
15:00 +29°C° 0 mm 8 m/s 699 mmHg 20%
16:00 +28°C° 0 mm 8 m/s 699 mmHg 24%
17:00 +26°C° 0 mm 8 m/s 699 mmHg 27%
18:00 +24°C° 0 mm 7 m/s 699 mmHg 31%
19:00 +23°C° 0 mm 7 m/s 700 mmHg 37%
20:00 +22°C° 0 mm 6 m/s 700 mmHg 44%
21:00 +21°C° 0 mm 5 m/s 700 mmHg 51%
22:00 +20°C° 0 mm 5 m/s 700 mmHg 55%
23:00 +20°C° 0 mm 5 m/s 699 mmHg 59%

Mâine, 21 Ianuarie, Joi

Timp Temperatura Precipitaţii Vânt Presiune Umiditate
00:00 +19°C° 0 mm 4 m/s 699 mmHg 64%
01:00 +19°C° 0 mm 4 m/s 699 mmHg 67%
02:00 +18°C° 0 mm 3 m/s 698 mmHg 71%
03:00 +18°C° 0 mm 3 m/s 698 mmHg 75%
04:00 +18°C° 0 mm 3 m/s 698 mmHg 76%
05:00 +17°C° 0 mm 2 m/s 699 mmHg 78%
06:00 +17°C° 0 mm 2 m/s 699 mmHg 80%
07:00 +18°C° 0 mm 2 m/s 699 mmHg 74%
08:00 +20°C° 0 mm 2 m/s 700 mmHg 67%
09:00 +21°C° 0 mm 2 m/s 701 mmHg 61%
10:00 +24°C° 0 mm 3 m/s 701 mmHg 51%
11:00 +25°C° 0 mm 3 m/s 700 mmHg 42%
12:00 +27°C° 0 mm 3 m/s 700 mmHg 32%
13:00 +28°C° 0 mm 4 m/s 700 mmHg 31%
14:00 +29°C° 0 mm 5 m/s 699 mmHg 29%
15:00 +29°C° 0 mm 5 m/s 699 mmHg 27%
16:00 +28°C° 0 mm 5 m/s 698 mmHg 31%
17:00 +27°C° 0 mm 5 m/s 698 mmHg 35%
18:00 +26°C° 0 mm 5 m/s 698 mmHg 39%
19:00 +25°C° 0 mm 5 m/s 699 mmHg 46%
20:00 +23°C° 0 mm 4 m/s 699 mmHg 52%
21:00 +21°C° 0 mm 4 m/s 699 mmHg 59%
22:00 +21°C° 0 mm 4 m/s 699 mmHg 63%
23:00 +20°C° 0 mm 4 m/s 699 mmHg 68%

Poimâine, 22 Ianuarie, Vineri

Timp Temperatura Precipitaţii Vânt Presiune Umiditate
00:00 +19°C° 0 mm 4 m/s 699 mmHg 73%
01:00 +19°C° 0 mm 4 m/s 698 mmHg 76%
02:00 +19°C° 0 mm 4 m/s 698 mmHg 80%
03:00 +18°C° 0 mm 4 m/s 698 mmHg 83%
04:00 +18°C° 0 mm 3 m/s 698 mmHg 85%
05:00 +17°C° 0 mm 3 m/s 698 mmHg 87%
06:00 +17°C° 0 mm 3 m/s 698 mmHg 89%
07:00 +19°C° 0 mm 4 m/s 699 mmHg 79%
08:00 +20°C° 0 mm 4 m/s 700 mmHg 70%
09:00 +21°C° 0 mm 5 m/s 701 mmHg 60%
10:00 +23°C° 0 mm 6 m/s 701 mmHg 51%
11:00 +26°C° 0 mm 7 m/s 701 mmHg 43%
12:00 +27°C° 0 mm 8 m/s 701 mmHg 34%
13:00 +28°C° 0 mm 8 m/s 700 mmHg 32%
14:00 +28°C° 0 mm 9 m/s 699 mmHg 30%
15:00 +28°C° 0 mm 9 m/s 698 mmHg 28%
16:00 +27°C° 0 mm 9 m/s 698 mmHg 33%
17:00 +26°C° 0 mm 9 m/s 698 mmHg 37%
18:00 +23°C° 0 mm 9 m/s 698 mmHg 41%
19:00 +22°C° 0 mm 9 m/s 699 mmHg 46%
20:00 +22°C° 0 mm 9 m/s 699 mmHg 51%
21:00 +21°C° 0 mm 9 m/s 700 mmHg 56%
22:00 +20°C° 0 mm 8 m/s 699 mmHg 59%
23:00 +20°C° 0 mm 8 m/s 699 mmHg 63%

23 Ianuarie, Sâmbătă

Timp Temperatura Precipitaţii Vânt Presiune Umiditate
00:00 +18°C° 0 mm 7 m/s 699 mmHg 67%
01:00 +18°C° 0 mm 7 m/s 698 mmHg 68%
02:00 +18°C° 0 mm 7 m/s 698 mmHg 70%
03:00 +17°C° 0 mm 6 m/s 698 mmHg 71%
04:00 +17°C° 0 mm 6 m/s 698 mmHg 74%
05:00 +17°C° 0 mm 6 m/s 698 mmHg 77%
06:00 +16°C° 0 mm 5 m/s 698 mmHg 79%
07:00 +19°C° 0 mm 6 m/s 699 mmHg 72%
08:00 +20°C° 0 mm 7 m/s 700 mmHg 64%
09:00 +22°C° 0 mm 8 m/s 701 mmHg 56%
10:00 +23°C° 0 mm 8 m/s 701 mmHg 51%
11:00 +26°C° 0 mm 9 m/s 701 mmHg 45%
12:00 +27°C° 0 mm 9 m/s 700 mmHg 40%
13:00 +27°C° 0 mm 9 m/s 700 mmHg 39%
14:00 +28°C° 0 mm 10 m/s 699 mmHg 37%
15:00 +28°C° 0 mm 10 m/s 698 mmHg 36%
16:00 +26°C° 0 mm 10 m/s 698 mmHg 42%
17:00 +24°C° 0 mm 9 m/s 698 mmHg 48%
18:00 +23°C° 0 mm 9 m/s 698 mmHg 54%
19:00 +22°C° 0 mm 9 m/s 698 mmHg 58%
20:00 +21°C° 0 mm 9 m/s 699 mmHg 63%
21:00 +19°C° 0 mm 9 m/s 699 mmHg 68%
22:00 +20°C° 0 mm 8 m/s 699 mmHg 72%
23:00 +18°C° 0 mm 8 m/s 699 mmHg 77%

24 Ianuarie, Duminică

Timp Temperatura Precipitaţii Vânt Presiune Umiditate
00:00 +18°C° 0 mm 8 m/s 698 mmHg 81%
01:00 +18°C° 0 mm 7 m/s 698 mmHg 83%
02:00 +17°C° 0 mm 7 m/s 698 mmHg 84%
03:00 +17°C° 0 mm 7 m/s 697 mmHg 85%
04:00 +17°C° 0 mm 7 m/s 698 mmHg 86%
05:00 +17°C° 0 mm 6 m/s 698 mmHg 87%
06:00 +17°C° 0 mm 6 m/s 698 mmHg 88%
07:00 +18°C° 0 mm 7 m/s 699 mmHg 79%
08:00 +20°C° 0 mm 7 m/s 700 mmHg 71%
09:00 +21°C° 0 mm 8 m/s 700 mmHg 62%
10:00 +23°C° 0 mm 8 m/s 700 mmHg 55%
11:00 +24°C° 0 mm 8 m/s 700 mmHg 47%
12:00 +27°C° 0 mm 9 m/s 700 mmHg 39%
13:00 +27°C° 0 mm 9 m/s 700 mmHg 37%
14:00 +28°C° 0 mm 9 m/s 699 mmHg 35%
15:00 +28°C° 0 mm 9 m/s 699 mmHg 34%
16:00 +26°C° 0 mm 9 m/s 699 mmHg 38%
17:00 +24°C° 0 mm 9 m/s 698 mmHg 43%
18:00 +23°C° 0 mm 9 m/s 698 mmHg 48%
19:00 +22°C° 0 mm 8 m/s 699 mmHg 55%
20:00 +21°C° 0 mm 8 m/s 699 mmHg 61%
21:00 +20°C° 0 mm 8 m/s 699 mmHg 68%
22:00 +20°C° 0 mm 8 m/s 699 mmHg 72%
23:00 +18°C° 0 mm 8 m/s 699 mmHg 76%

25 Ianuarie, Luni

Timp Temperatura Precipitaţii Vânt Presiune Umiditate
00:00 +18°C° 0 mm 8 m/s 699 mmHg 80%
01:00 +17°C° 0 mm 8 m/s 698 mmHg 82%
02:00 +17°C° 0 mm 8 m/s 698 mmHg 83%
03:00 +17°C° 0 mm 8 m/s 698 mmHg 85%
04:00 +17°C° 0 mm 8 m/s 698 mmHg 84%
05:00 +17°C° 0 mm 8 m/s 698 mmHg 83%
06:00 +17°C° 0 mm 8 m/s 699 mmHg 83%
07:00 +18°C° 0 mm 8 m/s 699 mmHg 77%
08:00 +20°C° 0 mm 8 m/s 700 mmHg 71%
09:00 +21°C° 0 mm 9 m/s 701 mmHg 64%
10:00 +22°C° 0 mm 8 m/s 701 mmHg 56%
11:00 +24°C° 0 mm 8 m/s 701 mmHg 47%
12:00 +27°C° 0 mm 8 m/s 701 mmHg 38%
13:00 +27°C° 0 mm 8 m/s 700 mmHg 37%
14:00 +27°C° 0 mm 8 m/s 700 mmHg 36%
15:00 +28°C° 0 mm 8 m/s 699 mmHg 35%
16:00 +26°C° 0 mm 8 m/s 699 mmHg 41%
17:00 +24°C° 0 mm 8 m/s 699 mmHg 47%
18:00 +23°C° 0 mm 8 m/s 699 mmHg 52%
19:00 +22°C° 0 mm 8 m/s 699 mmHg 60%
20:00 +21°C° 0 mm 8 m/s 699 mmHg 67%
21:00 +20°C° 0 mm 8 m/s 700 mmHg 75%
22:00 +18°C° 0 mm 8 m/s 700 mmHg 77%
23:00 +18°C° 0 mm 7 m/s 699 mmHg 80%
Arată mai mult

Formular de consimțământ

Meteoprog și furnizorii noștri de servicii pot stoca și accesa date personale, precum cookies, identificatori de dispozitiv sau alte tehnologii similare pe dispozitivul dumneavoastră și procesa astfel de date pentru a personaliza conținutul și reclamele, dar și pentru a oferi caracteristici de social media și pentru a analiza traficul.

  • Stocarea și/sau accesarea informațiilor pe dispozitivul dumneavoastră

    Cookies, identificatori de dispozitiv sau alte informații pot fi stocate sau accesate pe dispozitiv în scopurile indicate mai sus.

  • Reclame și conținut personalizat, evaluarea reclamelor și a conținutului, informații despre audiențe și dezvoltarea produselor

    Reclamele și conținutul pot fi personalizate pe baza unui profil. Pot fi adăugate date suplimentare pentru a personaliza mai bine reclamele și conținutul. Performanța reclamelor și conținutului poate fi măsurată. Pot fi obținute informații despre utilizatorii care au văzut reclamele și conținutul. Aceste date pot fi utilizate pentru a dezvolta sau îmbunătăți experiența utilizatorilor, sistemele și software-ul.

Dând clic pe ‘Sunt de acord’, permiteți utilizarea cookie-urilor menționate, a identificatorilor de dispozitiv, balizelor web sau altor tehnologii similare. Setările pot fi modificate din browser-ul dispozitivului dumneavoastră.

În anumite scopuri, interesele legitime pot prima asupra consimțământului. Puteți citi mai multe informații în acest sens în Politica privind Confidențialitatea Datelor și Cookie.